www.pogodaiklimat.ru

Погода и климат >> Архив погоды >> Китай >> Цзяньси >> Цзиань


ПОГОДА в Цзиане

  • Прогноз погоды в Цзиане
  • Монитор погоды в Цзиане

АРХИВ ПОГОДЫ в Цзиане

Время (UTC), дата Ветер
(напр.,м/с)
 
Видим.   Явления Облачность Т
(С)
Тd
(С)
f
(%)
Тe
(С)
Тes
(С)
Комфортность P
(гПа)
Po
(гПа)
Тmin
(С)
Tmax
(С)
R
(мм)
R24
(мм)
S
(см)
18 16.07 С 3 12 км ?/? +19.1 +18.6 97 +21 +21 комфорт 1011.4 990.4 +30.3
21 16.07 С 1 12 км н/о +19.4 +18.6 95 +23 +23 комфорт 1011.3 990.4
00 17.07 З 1 8000 м 10/10 1000 м
[]
+22.9 +20.1 84 +30 +30 очень
душно
1011.7 991.0
03 17.07 ЮЗ 3 15 км 9/9 600 м
[]
+28.1 +20.1 62 +34 +36 очень
душно
1010.2 989.9
06 17.07 ЮЗ 4 17 км 9/9 1000 м
[]
+28.3 +17.8 53 +33 +34 очень
душно
1009.2 988.9 +19.0
09 17.07 З 3 14 км 10/10
[]
+26.8 +18.4 60 +32 +32 очень
душно
1009.0 988.6
12 17.07 З 2 3600 м мгла 10/10 1000 м
[]
+23.9 +20.4 81 +30 +30 очень
душно
1010.2 989.6
18 17.07 С 1 1900 м в посл. час туман ?/? +21.1 +20.4 96 +26 +26 душно 1010.2 989.4 +28.9
21 17.07 Ю 1 7000 м н/о +21.5 +21.0 97 +27 +27 душно 1010.6 989.8
00 18.07 ЮЗ 1 8000 м 10/10
[]
+22.8 +20.5 87 +30 +30 очень
душно
1010.3 989.6
03 18.07 Ю 2 11 км 10/10
[]
+24.7 +20.0 75 +30 +30 очень
душно
1010.3 989.8
06 18.07 Ю 3 14 км 8/8 600 м
[]
+27.6 +19.7 62 +33 +36 очень
душно
1007.8 987.5 +21.1
09 18.07 З 3 16 км 4/4 600 м
[]
+27.9 +19.4 60 +34 +35 очень
душно
1006.7 986.5
12 18.07 С 2 10 км ясно +23.7 +21.2 86 +30 +30 очень
душно
1008.2 987.6
18 18.07 С 3 7000 м дымка ?/? +19.7 +19.5 99 +23 +23 комфорт 1008.2 987.4 +29.3
21 18.07 С 3 7000 м н/о +19.1 +18.9 99 +21 +21 комфорт 1009.1 988.2
00 19.07 В 1 6000 м дымка 8/8 300 м
[]
+23.1 +21.0 88 +31 +33 очень
душно
1009.1 988.5
03 19.07 Ю 2 13 км 1/1 600 м
[]
+29.1 +21.1 62 +37 +54 опасность
солнечного
удара
1007.3 987.1
06 19.07 С 2 24 км 3/3 600 м
[]
+32.7 +18.1 42 +37 +47 очень
душно
1005.3 985.4 +19.1
09 19.07 СЗ 1 20 км 3/3 600 м
[]
+33.3 +18.6 42 +38 +40 очень
душно
1004.5 984.6
12 19.07 С 4 12 км 3/3 1000 м
[]
+25.6 +21.5 78 +33 +33 очень
душно
1005.9 985.5
18 19.07 С 1 9000 м ?/? +21.2 +20.2 94 +26 +26 душно 1006.7 986.0 +34.3
21 19.07 В 1 8000 м н/о +20.0 +19.5 97 +25 +25 комфорт 1007.3 986.5
00 20.07 В 2 12 км ясно +26.6 +21.4 73 +34 +43 очень
душно
1006.3 986.0
03 20.07 С 1 27 км ясно +32.7 +18.1 42 +37 +59 опасность
солнечного
удара
1004.4 984.5
06 20.07 В 1 25 км 8/8 600 м
[]
+35.1 +18.2 37 +39 +43 очень
душно
1001.7 982.0 +20.0
09 20.07 ЮВ 2 30 км 8/8 600 м
[]
+33.4 +19.1 43 +39 +39 очень
душно
1001.1 981.3
12 20.07 С 3 26 км 5/5 1000 м
[]
+28.1 +20.6 64 +35 +35 очень
душно
1001.8 981.7
18 20.07 С 2 27 км ?/? +24.0 +20.7 82 +30 +30 очень
душно
1001.0 980.6 +36.4
21 20.07 В 1 18 км слаб. дождь н/о +23.5 +21.6 89 +30 +30 очень
душно
1001.4 981.0
00 21.07 В 1 27 км 9/9 1000 м
[]
+27.0 +21.7 73 +35 +36 очень
душно
1000.5 980.3 0.0
03 21.07 Ю 2 28 км в посл. час дождь 10/10 1000 м
[]
+26.0 +22.9 83 +35 +35 очень
душно
1000.8 980.5
06 21.07 Ю 1 3300 м дождь 10/10 1000 м
[]
+22.0 +21.3 96 +29 +29 очень
душно
1002.4 981.8 +22.0 10
09 21.07 штиль 0 4700 м слаб. дождь 10/10 1000 м
[]
+21.7 +21.2 97 +28 +28 душно 1002.2 981.6
12 21.07 Ю 1 н/о в посл. час дождь 8/8 1000 м
[]
+21.1 +20.8 98 +26 +26 душно 1002.8 982.2 7
18 21.07 ЮЗ 1 23 км ?/? +20.4 +19.6 95 +26 +26 душно 1004.2 983.5 +28.4
21 21.07 СВ 1 19 км в посл. час дождь н/о +20.3 +19.8 97 +25 +25 комфорт 1005.2 984.5
00 22.07 ЮЗ 1 17 км 10/10 1000 м
[]
+23.0 +20.3 85 +30 +30 очень
душно
1005.6 979.7 0.0
03 22.07 В 1 14 км 9/9 1000 м
[]
+26.4 +21.2 73 +33 +36 очень
душно
1004.6 984.3
06 22.07 В 2 15 км 3/3 600 м
[]
+30.5 +23.2 65 +41 +51 опасность
перегрева
1002.3 982.3 +20.3
09 22.07 З 3 23 км ясно +31.5 +23.1 61 +42 +44 опасность
перегрева
1001.3 981.4
12 22.07 В 1 12 км 3/3
[]
+26.2 +24.1 88 +36 +36 очень
душно
1003.2 982.9
18 22.07 С 1 3700 м дымка ?/? +25.6 +23.5 88 +35 +35 очень
душно
1003.8 983.5 +32.1
21 22.07 В 1 4800 м дымка н/о +24.6 +23.6 94 +33 +33 очень
душно
1004.1 983.7
00 23.07 Ю 2 4400 м дымка 10/10 1000 м
[]
+26.4 +24.1 87 +37 +37 очень
душно
1005.3 985.0
03 23.07 З 2 9000 м 9/9 1000 м
[]
+29.0 +22.5 68 +38 +40 очень
душно
1004.2 984.1
06 23.07 СВ 1 6000 м мгла 10/10 1000 м
[]
+28.2 +22.2 70 +37 +37 очень
душно
1002.0 981.9 +24.2
09 23.07 штиль 0 9000 м 10/10 1000 м
[]
+28.2 +23.6 76 +38 +38 очень
душно
1001.5 981.4
12 23.07 С 1 300 м туман 10/10 1000 м
[]
+25.3 +23.5 90 +34 +34 очень
душно
1002.6 982.3

 

Местоположение метеостанции Цзиань (Цзяньси, Китай): широта 41.10 долгота 126.15 высота над уровнем моря 179 м.

В архиве по умолчанию представлена погода в Цзиане за последнюю неделю. Архивные данные за месяц целиком и за предыдущие месяцы, начиная с января 2011 года, Вы можете получить, выбрав интересующий диапазон дат из раскрывающегося списка и нажав кнопку "Ввод!".


*Определитесь, кто Вы:
робот инопланетянин человек

Внимание! Время в таблицах - всемирное. Для получения местного времени необходимо прибавить поправку, которая равна 8 ч.

Смотрите также архив погоды в соседних городах и на ближайших метеорологических станциях:

Погода в Канге (КНДР) (40 км)
Погода в Линьцзяне (Гирин, Китай) (94 км)
Погода в Чунгане (КНДР) (97 км)
Погода в Хыйчхоне (КНДР) (104 км)
Погода в Куаньдяне (Ляонин, Китай) (123 км)
Погода в Джангджине (КНДР) (123 км)
Погода на Плотине Сапунг (КНДР) (126 км)
Погода в Кусонге (КНДР) (146 км)
Погода в Цинъюане (Гуандун, Китай) (149 км)
Погода в Анджу (КНДР) (170 км)

Пояснения к столбцам:

Ветер - указаны скорость ветра в м/с - средняя за 10 мин, порывы в срок и между сроками (в фигурных скобках) и направление, откуда дует ветер: С - северный, СВ - северо-восточный, В - восточный, ЮВ - юго-восточный, Ю - южный, ЮЗ - юго-западный, З - западный, СЗ - северо-западный.
Видимость - горизонтальная дальность видимости в метрах или километрах. При видимости от 1 до 10 км при отсутствии осадков обычно наблюдается дымка, при ухудшении видимости до 1 км и менее - туман. В сухую погоду видимость может ухудшаться дымом, пылью или мглою.
Явления - указаны атмосферные явления, наблюдавшиеся в срок или в последний час перед сроком; фигурными скобками обозначены явления, наблюдавшиеся между сроками (за 1-3 часа до срока); квадратными скобками обозначены град или гололедные отложения с указанием их диаметра в мм.
Облачность - указаны через наклонную черту общая и нижняя облачность в баллах и высота нижней границы облаков в метрах; квадратными скобками обозначены формы облаков: Ci - перистые, Cs - перисто-слоистые, Cc - перисто-кучевые, Ac - высококучевые, As - высокослоистые, Sc - слоисто-кучевые, Ns - слоисто-дождевые, Cu - кучевые, Cb - кучево-дождевые. Подробнее классификацию облаков см. в Атласе облаков (PDF).
T - Температура воздуха - температура, измеренная на высоте 2 м над землей.
Td - Температура точки росы - температура, при понижении до которой содержащийся в воздухе водяной пар достигнет насыщения.
f - Относительная влажность воздуха - влажноcть воздуха, измеренная на высоте 2 м над землей.
Te - Эффективная температура - температура, которую ощущает одетый по сезону человек в тени. Характеристика душности погоды. При расчете учитывается влияние влажности воздуха и скорости ветра на теплоощущения человека.
Tes - Эффективная температура на солнце - температура, которую ощущает человек, с поправкой на солнечный нагрев. Характеристика знойности погоды. Зависит от высоты солнца над горизонтом, облачности и скорости ветра. Ночью, в пасмурную погоду, а также при ветре 12 м/с и более поправка равна нулю.
P - Атмосферное давление - приведенное к уровню моря атмосферное давление.
Po - Атмосферное давление - измеренное на уровне метеостанции атмосферное давление.
Tmin - Минимальная температура - минимум температуры воздуха на высоте 2 м над землей.
Tmax - Максимальная температура - максимум температуры воздуха на высоте 2 м над землей.
R - Количество осадков - Количество выпавших осадков за период времени, мм. При наведении курсора мыши на число - период времени, за который выпало указанное количество осадков.
R24 - Количество осадков - Количество выпавших осадков за 24 часа, мм.
S - Снежный покров - Высота снежного покрова, см. При наведении курсора мыши на число - состояние снежного покрова и степень покрытия местности в баллах.